User: anonymous   Login
Location: Unspecified
(0.0000°N, 0.0000°E)
Time: 04:48:50
(UTC+02:00)
Language:

ARIANE 5 R/B - Orbit

View from above orbital plane
View from above orbital plane
View from above satellite
View from above satellite

Ground track
Ground track

The orbit data is extracted from the following two-line orbital elements,

1 27510U 02040C   17146.94831885 -.00000014 +00000-0 +56417-3 0  9998
2 27510 004.8925 219.8647 7149381 316.5601 183.7381 02.27197151122402
Epoch (UTC): 26 May 2017 22:45:34
Eccentricity: 0.7149381
inclination: 4.8925°
perigee height: 589 km
apogee height: 35537 km
right ascension of ascending node: 219.8647°
argument of perigee: 316.5601°
revolutions per day: 2.27197151
mean anomaly at epoch: 183.7381°
orbit number at epoch: 12240

The dashed part of the orbit path shows where the satellite is in the earth's shadow,  

DLR